Location: Cuzcurrita-R�o Tir�n
(42.5415°N, 2.9642°W)
Time: 21:31:20
(UTC+00:00)

H-2A R/B - Pass Details

Date: 17 January 2021
Orbit: 734 x 836 km, 98.2° (Epoch: 02 March)

Event Time Altitude Azimuth Distance (km) Brightness Sun altitude
Rises 19:42:32 0° 189° (S) 3,153 5.3 -28.3°
Reaches altitude 10° 19:44:58 10° 199° (SSW) 2,241 4.6 -28.8°
Maximum altitude 19:49:26 34° 264° (W) 1,216 3.5 -29.6°
Drops below altitude 10° 19:54:01 10° 329° (NNW) 2,298 4.8 -30.4°
Sets 19:56:33 0° 338° (NNW) 3,244 5.5 -30.9°
